Погода в Набережных Челнах

Россия / Республика Татарстан     55°44′36″N   52°23′45″E
темп.,
°C
ветер,
м/с
пор.,
м/с
влажн.,
%
обл.,
%
осадки,
мм/ч
давл.,
гПа
погр.,
м
11 мая, вт
вт1100:00+16св115780 0.0 102211
03:00+14св226466 0.0 102313
06:00+17всв2257100 0.0 102487
09:00+22в2340100 0.0 1025476
12:00+25вюв3333100 0.0 10251639
15:00+24вюв2331100 0.0 10262265
18:00+21вюв224796 0.0 102632
21:00+18юв225391 0.0 102711
12 мая, ср
ср1200:00+16в115656 0.0 102811
03:00+15в11584 0.0 102811
06:00+18всв23531 0.0 1029131
09:00+22вюв34390 0.0 1029679
12:00+25юв34310 0.0 10282191
15:00+25вюв34294 0.0 10282469
18:00+22в234549 0.0 102750
21:00+18юв225411 0.0 102820
13 мая, чт
чт1300:00+16ююв22576 0.0 102811
03:00+14ююв116126 0.0 102811
06:00+17юв125778 0.0 102897
09:00+22юв353988 0.0 1028706
12:00+25ююв453039 0.0 10271735
15:00+25ююв45314 0.0 10261814
18:00+23юв34482 0.0 102575
21:00+18ююв33530 0.0 102635
14 мая, пт
пт1400:00+17ююв225517 0.0 102616
03:00+16ююв2255100 0.0 102617
06:00+19ююв26535 0.0 1026181
09:00+24ю463699 0.0 1025761
12:00+26ююз5729100 0.0 10241440
15:00+27ююз57302 0.0 10241526
18:00+24ююз34475 0.0 102386
21:00+19ю3356100 0.0 102343
15 мая, сб
сб1500:00+18ююз345573 0.0 102356
03:00+16ююз225836 0.0 102319
06:00+19ююз27545 0.0 1023209
09:00+25ююз58365 0.0 1022765
12:00+28юз67285 0.0 10211550
15:00+28юз56285 0.0 10211659
18:00+25ююз24440 0.0 102057
21:00+20ю33530 0.0 101931